26-11-2022, 00:00:01,    201,    0.0,    6.5,   0.00,   0.00, 1019.4,   79.2, -999.0
26-11-2022, 00:00:11,    201,    0.0,    6.5,   0.00,   0.00, 1019.3,   79.3, -999.0
26-11-2022, 00:00:21,    200,    0.0,    6.4,   0.00,   0.00, 1019.3,   79.2, -999.0
26-11-2022, 00:00:30,    200,    0.0,    6.5,   0.00,   0.00, 1019.3,   79.3, -999.0
26-11-2022, 00:00:41,    201,    0.0,    6.5,   0.00,   0.00, 1019.4,   79.4, -999.0
26-11-2022, 00:00:51,    201,    0.0,    6.5,   0.00,   0.00, 1019.3,   79.5, -999.0
26-11-2022, 00:01:01,    200,    0.0,    6.5,   0.00,   0.00, 1019.3,   79.4, -999.0
26-11-2022, 00:01:10,    200,    0.0,    6.4,   0.00,   0.00, 1019.3,   79.4, -999.0
26-11-2022, 00:01:21,    200,    0.0,    6.5,   0.00,   0.00, 1019.3,   79.5, -999.0
26-11-2022, 00:01:31,    201,    0.0,    6.4,   0.00,   0.00, 1019.3,   79.5, -999.0
26-11-2022, 00:01:40,    201,    0.0,    6.5,   0.00,   0.00, 1019.3,   79.4, -999.0
26-11-2022, 00:01:50,    200,    0.0,    6.5,   0.00,   0.00, 1019.3,   79.5, -999.0
26-11-2022, 00:02:01,    200,    0.0,    6.5,   0.00,   0.00, 1019.3,   79.6, -999.0
26-11-2022, 00:02:10,    200,    0.0,    6.6,   0.00,   0.00, 1019.3,   79.5, -999.0
26-11-2022, 00:02:20,    200,    0.0,    6.6,   0.00,   0.00, 1019.3,   79.5, -999.0
26-11-2022, 00:02:31,    200,    0.0,    6.5,   0.00,   0.00, 1019.3,   79.5, -999.0
26-11-2022, 00:02:41,    200,    0.0,    6.5,   0.00,   0.00, 1019.4,   79.4, -999.0
26-11-2022, 00:02:50,    200,    0.0,    6.5,   0.00,   0.00, 1019.3,   79.4, -999.0
26-11-2022, 00:03:00,    200,    0.0,    6.5,   0.00,   0.00, 1019.4,   79.4, -999.0
26-11-2022, 00:03:11,    200,    0.0,    6.5,   0.00,   0.00, 1019.4,   79.3, -999.0
26-11-2022, 00:03:20,    201,    0.0,    6.5,   0.00,   0.00, 1019.3,   79.3, -999.0
26-11-2022, 00:03:30,    201,    0.0,    6.5,   0.00,   0.00, 1019.3,   79.4, -999.0
26-11-2022, 00:03:40,    201,    0.0,    6.4,   0.00,   0.00, 1019.3,   79.5, -999.0
26-11-2022, 00:03:50,    200,    0.0,    6.5,   0.00,   0.00, 1019.3,   79.7, -999.0
26-11-2022, 00:04:00,    200,    0.0,    6.6,   0.00,   0.00, 1019.4,   79.7, -999.0
26-11-2022, 00:04:10,    200,    0.0,    6.6,   0.00,   0.00, 1019.4,   79.5, -999.0
26-11-2022, 00:04:20,    200,    0.0,    6.6,   0.00,   0.00, 1019.4,   79.4, -999.0
26-11-2022, 00:04:30,    200,    0.0,    6.5,   0.00,   0.00, 1019.4,   79.4, -999.0
26-11-2022, 00:04:40,    201,    0.0,    6.5,   0.00,   0.00, 1019.4,   79.4, -999.0
26-11-2022, 00:04:50,    201,    0.0,    6.6,   0.00,   0.00, 1019.4,   79.3, -999.0
26-11-2022, 00:05:00,    200,    0.0,    6.6,   0.00,   0.00, 1019.4,   79.4, -999.0
26-11-2022, 00:05:10,    201,    0.0,    6.6,   0.00,   0.00, 1019.4,   79.3, -999.0
26-11-2022, 00:05:20,    200,    0.0,    6.6,   0.00,   0.00, 1019.4,   79.3, -999.0
26-11-2022, 00:05:30,    200,    0.0,    6.5,   0.00,   0.00, 1019.4,   79.2, -999.0
26-11-2022, 00:05:40,    200,    0.0,    6.5,   0.00,   0.00, 1019.4,   79.2, -999.0
26-11-2022, 00:05:50,    200,    0.0,    6.4,   0.00,   0.00, 1019.4,   79.3, -999.0
26-11-2022, 00:06:00,    200,    0.0,    6.4,   0.00,   0.00, 1019.4,   79.3, -999.0
26-11-2022, 00:06:10,    200,    0.0,    6.4,   0.00,   0.00, 1019.4,   79.3, -999.0
26-11-2022, 00:06:20,    201,    0.0,    6.4,   0.00,   0.00, 1019.4,   79.3, -999.0
26-11-2022, 00:06:30,    200,    0.0,    6.3,   0.00,   0.00, 1019.4,   79.5, -999.0
26-11-2022, 00:06:40,    201,    0.0,    6.4,   0.00,   0.00, 1019.4,   79.5, -999.0
26-11-2022, 00:06:50,    200,    0.0,    6.4,   0.00,   0.00, 1019.4,   79.6, -999.0
26-11-2022, 00:07:00,    201,    0.0,    6.4,   0.00,   0.00, 1019.4,   79.7, -999.0
26-11-2022, 00:07:10,    200,    0.0,    6.4,   0.00,   0.00, 1019.4,   79.7, -999.0
26-11-2022, 00:07:20,    200,    0.0,    6.5,   0.00,   0.00, 1019.4,   79.8, -999.0
26-11-2022, 00:07:30,    200,    0.0,    6.4,   0.00,   0.00, 1019.4,   79.9, -999.0
26-11-2022, 00:07:39,    200,    0.0,    6.4,   0.00,   0.00, 1019.4,   79.8, -999.0
26-11-2022, 00:07:50,    201,    0.0,    6.4,   0.00,   0.00, 1019.4,   79.7, -999.0
26-11-2022, 00:08:00,    200,    0.0,    6.2,   0.00,   0.00, 1019.4,   79.7, -999.0
26-11-2022, 00:08:09,    201,    0.0,    6.4,   0.00,   0.00, 1019.4,   79.8, -999.0
26-11-2022, 00:08:20,    201,    0.0,    6.4,   0.00,   0.00, 1019.4,   79.8, -999.0
26-11-2022, 00:08:30,    200,    0.0,    6.3,   0.00,   0.00, 1019.4,   79.8, -999.0
26-11-2022, 00:08:40,    201,    0.0,    6.4,   0.00,   0.00, 1019.4,   79.8, -999.0
26-11-2022, 00:08:49,    200,    0.0,    6.3,   0.00,   0.00, 1019.4,   79.9, -999.0
26-11-2022, 00:09:00,    203,    0.0,    6.3,   0.00,   0.00, 1019.4,   79.9, -999.0
26-11-2022, 00:09:10,    200,    0.0,    6.4,   0.00,   0.00, 1019.4,   79.9, -999.0
26-11-2022, 00:09:19,    200,    0.0,    6.4,   0.00,   0.00, 1019.4,   80.2, -999.0
26-11-2022, 00:09:29,    201,    0.0,    6.4,   0.00,   0.00, 1019.4,   80.3, -999.0
26-11-2022, 00:09:40,    200,    0.0,    6.4,   0.00,   0.00, 1019.4,   80.3, -999.0
26-11-2022, 00:09:49,    200,    0.0,    6.4,   0.00,   0.00, 1019.4,   80.3, -999.0
26-11-2022, 00:09:59,    200,    0.0,    6.4,   0.00,   0.00, 1019.4,   80.3, -999.0
26-11-2022, 00:10:09,    200,    0.0,    6.5,   0.00,   0.00, 1019.4,   80.2, -999.0
26-11-2022, 00:10:20,    200,    0.0,    6.5,   0.00,   0.00, 1019.4,   80.0, -999.0
26-11-2022, 00:10:29,    201,    0.0,    6.5,   0.00,   0.00, 1019.4,   79.9, -999.0
26-11-2022, 00:10:39,    200,    0.0,    6.4,   0.00,   0.00, 1019.4,   79.8, -999.0
26-11-2022, 00:10:49,    200,    0.0,    6.4,   0.00,   0.00, 1019.4,   79.8, -999.0
26-11-2022, 00:10:59,    200,    0.0,    6.4,   0.00,   0.00, 1019.4,   79.9, -999.0
26-11-2022, 00:11:09,    200,    0.0,    6.4,   0.00,   0.00, 1019.4,   79.8, -999.0
26-11-2022, 00:11:19,    201,    0.0,    6.4,   0.00,   0.00, 1019.4,   79.7, -999.0
26-11-2022, 00:11:29,    201,    0.0,    6.4,   0.00,   0.00, 1019.4,   79.8, -999.0
26-11-2022, 00:11:39,    200,    0.0,    6.4,   0.00,   0.00, 1019.4,   79.9, -999.0
26-11-2022, 00:11:49,    200,    0.0,    6.4,   0.00,   0.00, 1019.4,   79.9, -999.0
26-11-2022, 00:11:59,    200,    0.0,    6.4,   0.00,   0.00, 1019.4,   79.8, -999.0
26-11-2022, 00:12:09,    200,    0.0,    6.3,   0.00,   0.00, 1019.4,   79.8, -999.0
26-11-2022, 00:12:19,    200,    0.0,    6.3,   0.00,   0.00, 1019.4,   79.9, -999.0
26-11-2022, 00:12:29,    200,    0.0,    6.3,   0.00,   0.00, 1019.4,   79.9, -999.0
26-11-2022, 00:12:39,    201,    0.0,    6.3,   0.00,   0.00, 1019.4,   80.0, -999.0
26-11-2022, 00:12:49,    201,    0.0,    6.3,   0.00,   0.00, 1019.4,   80.0, -999.0
26-11-2022, 00:12:59,    204,    0.0,    6.3,   0.00,   0.00, 1019.4,   80.1, -999.0
26-11-2022, 00:13:09,    200,    0.0,    6.3,   0.00,   0.00, 1019.4,   80.3, -999.0
26-11-2022, 00:13:19,    201,    0.0,    6.4,   0.00,   0.00, 1019.4,   80.4, -999.0
26-11-2022, 00:13:29,    201,    0.0,    6.4,   0.00,   0.00, 1019.4,   80.4, -999.0
26-11-2022, 00:13:39,    200,    0.0,    6.3,   0.00,   0.00, 1019.4,   80.4, -999.0
26-11-2022, 00:13:49,    200,    0.0,    6.3,   0.00,   0.00, 1019.4,   80.3, -999.0
26-11-2022, 00:13:59,    200,    0.0,    6.4,   0.00,   0.00, 1019.4,   80.2, -999.0
26-11-2022, 00:14:09,    200,    0.0,    6.3,   0.00,   0.00, 1019.4,   80.1, -999.0
26-11-2022, 00:14:19,    200,    0.0,    6.4,   0.00,   0.00, 1019.3,   80.1, -999.0
26-11-2022, 00:14:29,    200,    0.0,    6.3,   0.00,   0.00, 1019.4,   80.1, -999.0
26-11-2022, 00:14:39,    200,    0.0,    6.2,   0.00,   0.00, 1019.4,   80.1, -999.0
26-11-2022, 00:14:49,    200,    0.0,    6.3,   0.00,   0.00, 1019.4,   80.2, -999.0
26-11-2022, 00:14:59,    200,    0.0,    6.3,   0.00,   0.00, 1019.3,   80.3, -999.0
26-11-2022, 00:15:09,    200,    0.0,    6.3,   0.00,   0.00, 1019.4,   80.3, -999.0
26-11-2022, 00:15:18,    201,    0.0,    6.3,   0.00,   0.00, 1019.3,   80.3, -999.0
26-11-2022, 00:15:29,    200,    0.0,    6.2,   0.00,   0.00, 1019.4,   80.3, -999.0
26-11-2022, 00:15:39,    201,    0.0,    6.2,   0.00,   0.00, 1019.4,   80.4, -999.0
26-11-2022, 00:15:49,    200,    0.0,    6.3,   0.00,   0.00, 1019.4,   80.6, -999.0
26-11-2022, 00:15:58,    200,    0.0,    6.3,   0.00,   0.00, 1019.4,   80.6, -999.0
26-11-2022, 00:16:11,    200,    0.0,    6.3,   0.00,   0.00, 1019.3,   80.6, -999.0
26-11-2022, 00:16:19,    200,    0.0,    6.3,   0.00,   0.00, 1019.3,   80.7, -999.0
26-11-2022, 00:16:28,    194,    0.0,    6.3,   0.00,   0.00, 1019.4,   80.8, -999.0
26-11-2022, 00:16:38,    201,    0.0,    6.3,   0.00,   0.00, 1019.4,   80.7, -999.0
26-11-2022, 00:16:49,    200,    0.1,    6.3,   0.00,   0.00, 1019.4,   80.9, -999.0
26-11-2022, 00:16:58,    200,    0.0,    6.3,   0.00,   0.00, 1019.3,   80.7, -999.0
26-11-2022, 00:17:08,    200,    0.0,    6.3,   0.00,   0.00, 1019.3,   80.6, -999.0
26-11-2022, 00:17:18,    200,    0.0,    6.3,   0.00,   0.00, 1019.3,   80.6, -999.0
26-11-2022, 00:17:29,    201,    0.0,    6.3,   0.00,   0.00, 1019.3,   80.8, -999.0
26-11-2022, 00:17:38,    200,    0.0,    6.3,   0.00,   0.00, 1019.3,   80.8, -999.0
26-11-2022, 00:17:48,    200,    0.0,    6.4,   0.00,   0.00, 1019.3,   80.9, -999.0
26-11-2022, 00:17:58,    200,    0.0,    6.3,   0.00,   0.00, 1019.3,   80.7, -999.0
26-11-2022, 00:18:08,    200,    0.0,    6.3,   0.00,   0.00, 1019.3,   80.7, -999.0
26-11-2022, 00:18:18,    201,    0.0,    6.3,   0.00,   0.00, 1019.3,   80.6, -999.0
26-11-2022, 00:18:28,    200,    0.0,    6.3,   0.00,   0.00, 1019.3,   80.7, -999.0
26-11-2022, 00:18:38,    200,    0.0,    6.3,   0.00,   0.00, 1019.3,   80.7, -999.0
26-11-2022, 00:18:48,    200,    0.0,    6.3,   0.00,   0.00, 1019.3,   80.6, -999.0
26-11-2022, 00:18:58,    200,    0.0,    6.3,   0.00,   0.00, 1019.2,   80.6, -999.0
26-11-2022, 00:19:08,    201,    0.0,    6.3,   0.00,   0.00, 1019.2,   80.5, -999.0
26-11-2022, 00:19:18,    200,    0.0,    6.3,   0.00,   0.00, 1019.2,   80.4, -999.0
26-11-2022, 00:19:28,    200,    0.0,    6.2,   0.00,   0.00, 1019.3,   80.5, -999.0
26-11-2022, 00:19:38,    200,    0.0,    6.3,   0.00,   0.00, 1019.2,   80.5, -999.0
26-11-2022, 00:19:48,    200,    0.0,    6.3,   0.00,   0.00, 1019.2,   80.5, -999.0
26-11-2022, 00:19:58,    200,    0.0,    6.3,   0.00,   0.00, 1019.2,   80.5, -999.0
26-11-2022, 00:20:08,    200,    0.0,    6.3,   0.00,   0.00, 1019.2,   80.5, -999.0
26-11-2022, 00:20:18,    200,    0.0,    6.2,   0.00,   0.00, 1019.2,   80.5, -999.0
26-11-2022, 00:20:28,    200,    0.0,    6.2,   0.00,   0.00, 1019.2,   80.6, -999.0
26-11-2022, 00:20:38,    200,    0.0,    6.3,   0.00,   0.00, 1019.2,   80.6, -999.0
26-11-2022, 00:20:48,    200,    0.0,    6.3,   0.00,   0.00, 1019.2,   80.7, -999.0
26-11-2022, 00:20:58,    200,    0.0,    6.2,   0.00,   0.00, 1019.3,   80.7, -999.0
26-11-2022, 00:21:08,    201,    0.0,    6.2,   0.00,   0.00, 1019.2,   80.7, -999.0
26-11-2022, 00:21:18,    200,    0.0,    6.2,   0.00,   0.00, 1019.2,   80.7, -999.0
26-11-2022, 00:21:28,    200,    0.0,    6.1,   0.00,   0.00, 1019.2,   80.7, -999.0
26-11-2022, 00:21:38,    200,    0.0,    6.2,   0.00,   0.00, 1019.2,   80.8, -999.0
26-11-2022, 00:21:48,    200,    0.0,    6.2,   0.00,   0.00, 1019.2,   80.8, -999.0
26-11-2022, 00:21:58,    200,    0.0,    6.2,   0.00,   0.00, 1019.2,   80.9, -999.0
26-11-2022, 00:22:08,    200,    0.0,    6.3,   0.00,   0.00, 1019.2,   80.9, -999.0
26-11-2022, 00:22:18,    200,    0.0,    6.3,   0.00,   0.00, 1019.3,   80.9, -999.0
26-11-2022, 00:22:27,    200,    0.0,    6.2,   0.00,   0.00, 1019.3,   80.9, -999.0
26-11-2022, 00:22:38,    200,    0.0,    6.2,   0.00,   0.00, 1019.2,   80.9, -999.0
26-11-2022, 00:22:48,    200,    0.0,    6.3,   0.00,   0.00, 1019.3,   80.8, -999.0
26-11-2022, 00:22:57,    200,    0.0,    6.3,   0.00,   0.00, 1019.3,   80.8, -999.0
26-11-2022, 00:23:07,    200,    0.0,    6.3,   0.00,   0.00, 1019.3,   80.7, -999.0
26-11-2022, 00:23:18,    200,    0.0,    6.3,   0.00,   0.00, 1019.2,   80.8, -999.0
26-11-2022, 00:23:28,    200,    0.0,    6.3,   0.00,   0.00, 1019.2,   80.8, -999.0
26-11-2022, 00:23:37,    201,    0.0,    6.3,   0.00,   0.00, 1019.2,   80.8, -999.0
26-11-2022, 00:23:47,    200,    0.0,    6.3,   0.00,   0.00, 1019.2,   80.7, -999.0
26-11-2022, 00:23:58,    200,    0.0,    6.3,   0.00,   0.00, 1019.2,   80.8, -999.0
26-11-2022, 00:24:07,    200,    0.0,    6.3,   0.00,   0.00, 1019.3,   80.8, -999.0
26-11-2022, 00:24:17,    200,    0.0,    6.3,   0.00,   0.00, 1019.3,   80.8, -999.0
26-11-2022, 00:24:27,    200,    0.0,    6.3,   0.00,   0.00, 1019.3,   80.7, -999.0
26-11-2022, 00:24:37,    200,    0.0,    6.3,   0.00,   0.00, 1019.3,   80.7, -999.0
26-11-2022, 00:24:47,    200,    0.0,    6.2,   0.00,   0.00, 1019.3,   80.6, -999.0
26-11-2022, 00:24:57,    200,    0.0,    6.2,   0.00,   0.00, 1019.3,   80.8, -999.0
26-11-2022, 00:25:07,    201,    0.0,    6.3,   0.00,   0.00, 1019.3,   80.7, -999.0
26-11-2022, 00:25:17,    200,    0.0,    6.3,   0.00,   0.00, 1019.3,   80.8, -999.0
26-11-2022, 00:25:27,    200,    0.0,    6.3,   0.00,   0.00, 1019.2,   80.8, -999.0
26-11-2022, 00:25:37,    200,    0.0,    6.3,   0.00,   0.00, 1019.2,   80.8, -999.0
26-11-2022, 00:25:47,    200,    0.0,    6.3,   0.00,   0.00, 1019.2,   80.9, -999.0
26-11-2022, 00:25:57,    200,    0.0,    6.3,   0.00,   0.00, 1019.2,   80.9, -999.0
26-11-2022, 00:26:07,    200,    0.0,    6.3,   0.00,   0.00, 1019.3,   80.9, -999.0
26-11-2022, 00:26:17,    200,    0.0,    6.2,   0.00,   0.00, 1019.3,   80.9, -999.0
26-11-2022, 00:26:27,    200,    0.0,    6.3,   0.00,   0.00, 1019.3,   80.9, -999.0
26-11-2022, 00:26:37,    200,    0.0,    6.3,   0.00,   0.00, 1019.3,   80.9, -999.0
26-11-2022, 00:26:47,    200,    0.0,    6.2,   0.00,   0.00, 1019.2,   80.9, -999.0
26-11-2022, 00:26:57,    200,    0.0,    6.2,   0.00,   0.00, 1019.2,   80.9, -999.0
26-11-2022, 00:27:07,    200,    0.0,    6.3,   0.00,   0.00, 1019.3,   80.9, -999.0
26-11-2022, 00:27:17,    200,    0.0,    6.2,   0.00,   0.00, 1019.3,   81.0, -999.0
26-11-2022, 00:27:27,    200,    0.0,    6.2,   0.00,   0.00, 1019.2,   81.1, -999.0
26-11-2022, 00:27:37,    201,    0.0,    6.2,   0.00,   0.00, 1019.3,   81.0, -999.0
26-11-2022, 00:27:47,    200,    0.0,    6.2,   0.00,   0.00, 1019.3,   81.1, -999.0
26-11-2022, 00:27:57,    200,    0.0,    6.2,   0.00,   0.00, 1019.3,   81.0, -999.0
26-11-2022, 00:28:07,    200,    0.0,    6.2,   0.00,   0.00, 1019.3,   81.1, -999.0
26-11-2022, 00:28:17,    200,    0.0,    6.3,   0.00,   0.00, 1019.3,   81.2, -999.0
26-11-2022, 00:28:27,    200,    0.1,    6.3,   0.00,   0.00, 1019.3,   81.2, -999.0
26-11-2022, 00:28:37,    200,    0.0,    6.3,   0.00,   0.00, 1019.3,   81.1, -999.0
26-11-2022, 00:28:47,    200,    0.0,    6.3,   0.00,   0.00, 1019.3,   81.1, -999.0
26-11-2022, 00:28:57,    200,    0.0,    6.3,   0.00,   0.00, 1019.3,   81.3, -999.0
26-11-2022, 00:29:07,    200,    0.0,    6.4,   0.00,   0.00, 1019.3,   81.4, -999.0
26-11-2022, 00:29:17,    199,    0.0,    6.5,   0.00,   0.00, 1019.3,   81.3, -999.0
26-11-2022, 00:29:27,    200,    0.0,    6.5,   0.00,   0.00, 1019.3,   81.1, -999.0
26-11-2022, 00:29:37,    200,    0.0,    6.4,   0.00,   0.00, 1019.2,   80.9, -999.0
26-11-2022, 00:29:47,    200,    0.0,    6.4,   0.00,   0.00, 1019.3,   80.7, -999.0
26-11-2022, 00:29:57,    200,    0.0,    6.4,   0.00,   0.00, 1019.3,   80.7, -999.0
26-11-2022, 00:30:07,    200,    0.0,    6.4,   0.00,   0.00, 1019.3,   80.6, -999.0
26-11-2022, 00:30:16,    200,    0.0,    6.3,   0.00,   0.00, 1019.3,   80.6, -999.0
26-11-2022, 00:30:27,    200,    0.0,    6.3,   0.00,   0.00, 1019.3,   80.5, -999.0
26-11-2022, 00:30:37,    200,    0.0,    6.3,   0.00,   0.00, 1019.3,   80.5, -999.0
26-11-2022, 00:30:46,    200,    0.0,    6.2,   0.00,   0.00, 1019.3,   80.5, -999.0
26-11-2022, 00:30:56,    200,    0.0,    6.3,   0.00,   0.00, 1019.3,   80.6, -999.0
26-11-2022, 00:31:07,    200,    0.0,    6.3,   0.00,   0.00, 1019.4,   80.6, -999.0
26-11-2022, 00:31:17,    200,    0.0,    6.2,   0.00,   0.00, 1019.4,   80.6, -999.0
26-11-2022, 00:31:26,    199,    0.0,    6.3,   0.00,   0.00, 1019.4,   80.7, -999.0
26-11-2022, 00:31:36,    200,    0.0,    6.3,   0.00,   0.00, 1019.4,   80.7, -999.0
26-11-2022, 00:31:47,    200,    0.0,    6.2,   0.00,   0.00, 1019.4,   80.8, -999.0
26-11-2022, 00:31:56,    201,    0.0,    6.2,   0.00,   0.00, 1019.4,   80.8, -999.0
26-11-2022, 00:32:06,    200,    0.0,    6.2,   0.00,   0.00, 1019.4,   80.8, -999.0
26-11-2022, 00:32:16,    200,    0.0,    6.2,   0.00,   0.00, 1019.4,   80.9, -999.0
26-11-2022, 00:32:26,    200,    0.0,    6.3,   0.00,   0.00, 1019.4,   81.0, -999.0
26-11-2022, 00:32:36,    200,    0.0,    6.3,   0.00,   0.00, 1019.4,   80.9, -999.0
26-11-2022, 00:32:46,    201,    0.0,    6.3,   0.00,   0.00, 1019.4,   81.0, -999.0
26-11-2022, 00:32:56,    200,    0.0,    6.3,   0.00,   0.00, 1019.4,   80.9, -999.0
26-11-2022, 00:33:06,    200,    0.0,    6.3,   0.00,   0.00, 1019.4,   80.8, -999.0
26-11-2022, 00:33:16,    200,    0.0,    6.3,   0.00,   0.00, 1019.4,   80.9, -999.0
26-11-2022, 00:33:26,    200,    0.0,    6.3,   0.00,   0.00, 1019.4,   81.0, -999.0
26-11-2022, 00:33:36,    200,    0.0,    6.3,   0.00,   0.00, 1019.4,   80.9, -999.0
26-11-2022, 00:33:46,    200,    0.0,    6.2,   0.00,   0.00, 1019.4,   80.9, -999.0
26-11-2022, 00:33:56,    200,    0.0,    6.3,   0.00,   0.00, 1019.4,   80.9, -999.0
26-11-2022, 00:34:06,    200,    0.0,    6.3,   0.00,   0.00, 1019.4,   81.0, -999.0
26-11-2022, 00:34:16,    200,    0.0,    6.3,   0.00,   0.00, 1019.4,   81.0, -999.0
26-11-2022, 00:34:26,    200,    0.0,    6.3,   0.00,   0.00, 1019.4,   81.0, -999.0
26-11-2022, 00:34:36,    200,    0.0,    6.3,   0.00,   0.00, 1019.4,   81.0, -999.0
26-11-2022, 00:34:46,    200,    0.0,    6.3,   0.00,   0.00, 1019.4,   81.0, -999.0
26-11-2022, 00:34:56,    200,    0.0,    6.3,   0.00,   0.00, 1019.4,   81.1, -999.0
26-11-2022, 00:35:06,    200,    0.0,    6.3,   0.00,   0.00, 1019.4,   81.1, -999.0
26-11-2022, 00:35:16,    200,    0.0,    6.3,   0.00,   0.00, 1019.4,   81.1, -999.0
26-11-2022, 00:35:26,    200,    0.0,    6.3,   0.00,   0.00, 1019.4,   81.0, -999.0
26-11-2022, 00:35:36,    200,    0.0,    6.2,   0.00,   0.00, 1019.4,   81.1, -999.0
26-11-2022, 00:35:46,    200,    0.0,    6.3,   0.00,   0.00, 1019.4,   81.1, -999.0
26-11-2022, 00:35:56,    200,    0.0,    6.3,   0.00,   0.00, 1019.4,   81.0, -999.0
26-11-2022, 00:36:06,    200,    0.0,    6.3,   0.00,   0.00, 1019.4,   81.0, -999.0
26-11-2022, 00:36:16,    200,    0.0,    6.3,   0.00,   0.00, 1019.4,   81.0, -999.0
26-11-2022, 00:36:26,    200,    0.0,    6.3,   0.00,   0.00, 1019.4,   80.9, -999.0
26-11-2022, 00:36:36,    200,    0.0,    6.3,   0.00,   0.00, 1019.4,   81.0, -999.0
26-11-2022, 00:36:46,    200,    0.0,    6.3,   0.00,   0.00, 1019.4,   80.9, -999.0
26-11-2022, 00:36:55,    200,    0.0,    6.3,   0.00,   0.00, 1019.4,   80.9, -999.0
26-11-2022, 00:37:06,    200,    0.0,    6.3,   0.00,   0.00, 1019.4,   81.0, -999.0
26-11-2022, 00:37:16,    200,    0.0,    6.3,   0.00,   0.00, 1019.4,   80.9, -999.0
26-11-2022, 00:37:25,    200,    0.0,    6.2,   0.00,   0.00, 1019.4,   80.9, -999.0
26-11-2022, 00:37:35,    200,    0.0,    6.2,   0.00,   0.00, 1019.4,   80.9, -999.0
26-11-2022, 00:37:46,    200,    0.0,    6.3,   0.00,   0.00, 1019.4,   80.9, -999.0
26-11-2022, 00:37:56,    200,    0.0,    6.3,   0.00,   0.00, 1019.4,   81.0, -999.0
26-11-2022, 00:38:05,    200,    0.0,    6.3,   0.00,   0.00, 1019.4,   80.9, -999.0
26-11-2022, 00:38:15,    200,    0.0,    6.3,   0.00,   0.00, 1019.4,   81.0, -999.0
26-11-2022, 00:38:26,    200,    0.0,    6.3,   0.00,   0.00, 1019.4,   81.0, -999.0
26-11-2022, 00:38:35,    200,    0.0,    6.3,   0.00,   0.00, 1019.4,   81.0, -999.0
26-11-2022, 00:38:45,    200,    0.0,    6.2,   0.00,   0.00, 1019.4,   81.1, -999.0
26-11-2022, 00:38:56,    200,    0.0,    6.3,   0.00,   0.00, 1019.4,   81.0, -999.0
26-11-2022, 00:39:05,    200,    0.0,    6.3,   0.00,   0.00, 1019.4,   81.0, -999.0
26-11-2022, 00:39:15,    200,    0.0,    6.2,   0.00,   0.00, 1019.4,   80.9, -999.0
26-11-2022, 00:39:25,    200,    0.0,    6.2,   0.00,   0.00, 1019.4,   81.0, -999.0
26-11-2022, 00:39:35,    200,    0.0,    6.3,   0.00,   0.00, 1019.4,   81.0, -999.0
26-11-2022, 00:39:45,    200,    0.0,    6.3,   0.00,   0.00, 1019.4,   81.1, -999.0
26-11-2022, 00:39:55,    200,    0.0,    6.3,   0.00,   0.00, 1019.4,   81.2, -999.0
26-11-2022, 00:40:05,    200,    0.0,    6.2,   0.00,   0.00, 1019.4,   81.2, -999.0
26-11-2022, 00:40:15,    200,    0.0,    6.2,   0.00,   0.00, 1019.4,   81.2, -999.0
26-11-2022, 00:40:25,    199,    0.0,    6.2,   0.00,   0.00, 1019.4,   81.2, -999.0
26-11-2022, 00:40:35,    200,    0.0,    6.2,   0.00,   0.00, 1019.4,   81.2, -999.0
26-11-2022, 00:40:45,    200,    0.0,    6.2,   0.00,   0.00, 1019.4,   81.2, -999.0
26-11-2022, 00:40:55,    200,    0.0,    6.3,   0.00,   0.00, 1019.4,   81.3, -999.0
26-11-2022, 00:41:05,    199,    0.0,    6.3,   0.00,   0.00, 1019.4,   81.3, -999.0
26-11-2022, 00:41:15,    199,    0.0,    6.2,   0.00,   0.00, 1019.4,   81.3, -999.0
26-11-2022, 00:41:25,    200,    0.0,    6.3,   0.00,   0.00, 1019.4,   81.4, -999.0
26-11-2022, 00:41:35,    200,    0.0,    6.3,   0.00,   0.00, 1019.4,   81.4, -999.0
26-11-2022, 00:41:45,    200,    0.0,    6.3,   0.00,   0.00, 1019.4,   81.3, -999.0
26-11-2022, 00:41:55,    200,    0.0,    6.3,   0.00,   0.00, 1019.4,   81.2, -999.0
26-11-2022, 00:42:05,    200,    0.0,    6.3,   0.00,   0.00, 1019.4,   81.1, -999.0
26-11-2022, 00:42:15,    199,    0.0,    6.3,   0.00,   0.00, 1019.4,   81.1, -999.0
26-11-2022, 00:42:25,    200,    0.0,    6.4,   0.00,   0.00, 1019.4,   81.0, -999.0
26-11-2022, 00:42:35,    199,    0.0,    6.3,   0.00,   0.00, 1019.4,   81.1, -999.0
26-11-2022, 00:42:45,    200,    0.0,    6.3,   0.00,   0.00, 1019.4,   81.1, -999.0
26-11-2022, 00:42:55,    200,    0.0,    6.3,   0.00,   0.00, 1019.5,   81.0, -999.0
26-11-2022, 00:43:05,    200,    0.0,    6.3,   0.00,   0.00, 1019.4,   81.0, -999.0
26-11-2022, 00:43:15,    200,    0.0,    6.4,   0.00,   0.00, 1019.4,   81.1, -999.0
26-11-2022, 00:43:25,    200,    0.0,    6.3,   0.00,   0.00, 1019.4,   81.1, -999.0
26-11-2022, 00:43:35,    200,    0.0,    6.3,   0.00,   0.00, 1019.4,   81.1, -999.0
26-11-2022, 00:43:45,    199,    0.0,    6.3,   0.00,   0.00, 1019.4,   81.0, -999.0
26-11-2022, 00:43:55,    200,    0.0,    6.3,   0.00,   0.00, 1019.4,   81.0, -999.0
26-11-2022, 00:44:04,    199,    0.0,    6.3,   0.00,   0.00, 1019.4,   80.9, -999.0
26-11-2022, 00:44:15,    200,    0.0,    6.2,   0.00,   0.00, 1019.5,   80.9, -999.0
26-11-2022, 00:44:25,    199,    0.0,    6.3,   0.00,   0.00, 1019.4,   81.0, -999.0
26-11-2022, 00:44:35,    199,    0.0,    6.4,   0.00,   0.00, 1019.4,   81.1, -999.0
26-11-2022, 00:44:44,    200,    0.0,    6.3,   0.00,   0.00, 1019.4,   81.0, -999.0
26-11-2022, 00:44:55,    199,    0.0,    6.4,   0.00,   0.00, 1019.4,   81.0, -999.0
26-11-2022, 00:45:05,    200,    0.0,    6.3,   0.00,   0.00, 1019.4,   81.0, -999.0
26-11-2022, 00:45:14,    200,    0.0,    6.4,   0.00,   0.00, 1019.4,   81.0, -999.0
26-11-2022, 00:45:24,    199,    0.0,    6.4,   0.00,   0.00, 1019.4,   81.0, -999.0
26-11-2022, 00:45:35,    199,    0.0,    6.3,   0.00,   0.00, 1019.4,   80.9, -999.0
26-11-2022, 00:45:44,    200,    0.0,    6.3,   0.00,   0.00, 1019.4,   81.0, -999.0
26-11-2022, 00:45:54,    200,    0.0,    6.3,   0.00,   0.00, 1019.4,   81.0, -999.0
26-11-2022, 00:46:04,    200,    0.0,    6.4,   0.00,   0.00, 1019.4,   81.0, -999.0
26-11-2022, 00:46:15,    199,    0.0,    6.5,   0.00,   0.00, 1019.4,   81.1, -999.0
26-11-2022, 00:46:24,    200,    0.0,    6.4,   0.00,   0.00, 1019.4,   81.1, -999.0
26-11-2022, 00:46:34,    199,    0.0,    6.4,   0.00,   0.00, 1019.4,   81.0, -999.0
26-11-2022, 00:46:44,    200,    0.0,    6.5,   0.00,   0.00, 1019.4,   80.9, -999.0